Theta_e
318 319 320 320 320 320 317 316 316 313 311 309 309 307 305 302 301 300 299 299 300 297 296 296 293 290 290 289 288 287 287 288 287 285 287 285 284 284 283 284 284 283 282
318 319 319 319 319 319 317 316 316 311 311 311 308 306 304 303 301 299 297 297 297 296 293 291 292 287 287 287 286 286 287 287 287 286 285 283 284 283 284 282 281 281 281
317 318 318 318 318 318 318 316 313 312 309 309 306 304 303 302 300 300 299 295 294 293 290 289 288 287 286 285 285 285 286 284 285 285 283 283 282 281 280 280 280 280 280
315 317 317 318 318 319 318 315 312 311 309 307 306 305 304 303 301 299 297 293 292 291 289 288 287 286 286 285 284 284 283 283 282 283 282 281 281 280 280 280 279 279 279
313 316 317 317 319 319 317 314 313 310 310 309 307 305 304 301 298 296 294 293 292 289 288 287 287 286 286 286 284 283 283 282 282 281 281 280 279 278 278 278 278 278 278
305 304 306 310 313 314 315 313 311 309 307 304 303 300 298 298 295 295 293 291 290 289 287 286 286 284 286 287 287 287 285 283 281 281 280 279 279 280 278 278 278 278 279
300 300 299 299 300 299 299 300 299 299 297 297 297 297 296 297 295 295 292 291 289 288 288 286 284 283 284 285 288 288 287 287 285 283 281 281 280 280 278 275 276 276 277
295 296 295 294 295 294 294 294 294 294 294 294 293 294 293 293 294 293 290 289 289 288 288 286 285 284 283 284 285 284 283 284 284 283 282 282 281 280 280 279 278 276 275
288 289 290 291 292 292 292 292 291 290 290 290 289 289 290 289 292 292 290 288 287 287 286 285 285 284 285 286 284 283 283 282 286 287 285 285 285 284 280 277 276 275 275
283 284 286 289 290 291 292 291 289 289 289 287 288 289 288 288 292 292 290 287 285 284 283 283 284 285 287 287 283 283 282 282 280 280 280 284 285 284 282 278 276 275 274
281 283 285 287 287 289 290 287 286 287 286 287 287 286 287 288 289 292 291 286 286 284 284 282 283 288 288 288 286 284 284 282 283 279 278 276 277 278 279 278 277 277 274
279 282 284 285 286 286 286 286 286 286 286 286 286 285 285 285 287 291 291 289 288 286 284 283 283 288 289 289 285 286 286 282 280 278 277 277 277 277 277 277 277 276 276
280 282 283 283 285 285 286 286 286 285 286 285 285 286 285 284 286 291 291 289 289 286 285 285 286 288 288 288 288 287 282 280 279 278 278 279 279 279 277 275 274 274 273
280 282 283 283 282 285 286 286 286 286 286 285 286 286 285 284 284 288 288 288 286 285 286 286 287 287 287 286 286 286 283 281 280 281 280 279 276 275 276 275 274 272 272
280 281 282 283 283 284 284 285 286 286 287 286 286 286 286 285 285 287 288 286 285 286 285 285 284 284 283 283 283 283 282 282 281 280 279 279 278 277 275 273 272 270 272
276 279 280 281 282 283 283 284 287 288 288 290 290 288 286 288 288 288 289 288 287 287 285 283 283 283 282 282 281 281 281 280 280 279 278 277 276 274 273 271 272 271 270
272 274 277 279 281 282 283 283 283 285 288 288 289 289 288 288 288 289 289 289 288 287 284 283 283 283 282 282 281 280 276 276 275 277 276 274 273 272 272 270 269 269 269
271 271 273 276 278 280 281 282 283 282 281 283 286 287 288 288 288 288 289 288 283 284 283 282 280 280 279 278 276 274 273 272 272 272 271 270 270 272 270 268 267 267 267
270 271 272 272 274 275 276 277 279 280 281 281 282 283 284 286 287 287 286 281 279 278 278 276 276 275 274 273 272 271 271 270 269 268 267 266 266 267 265 264 265 263 263
270 270 269 271 272 273 274 275 277 278 278 278 278 278 279 278 275 275 276 276 275 274 273 272 271 271 270 269 269 268 266 266 266 265 264 264 263 265 263 262 262 263 263
265 267 267 268 270 270 271 273 276 276 276 276 276 278 277 272 270 270 269 270 271 270 270 269 268 267 267 266 266 266 266 264 264 263 263 262 262 262 260 261 261 260 260
264 264 267 267 269 271 271 272 272 272 271 270 270 272 273 269 267 266 266 265 265 266 267 267 265 265 265 265 265 265 265 263 263 262 262 261 261 260 260 261 260 260 259
264 265 266 266 266 267 269 269 270 270 269 269 268 268 267 266 265 265 264 264 264 264 265 265 264 263 263 263 263 264 264 263 263 262 261 261 261 261 259 261 260 259 260
263 264 264 265 266 267 268 268 268 268 268 267 266 265 265 264 264 263 263 263 263 263 263 264 263 263 262 261 261 260 261 260 260 260 261 261 261 259 258 258 259 258 259
260 261 262 262 264 264 265 266 266 266 266 266 265 265 264 264 263 263 263 263 263 263 262 263 263 262 262 262 261 261 260 263 260 259 259 259 260 260 258 259 259 260 259
258 259 259 260 261 264 264 264 264 263 263 263 264 264 264 263 263 263 263 263 263 262 262 262 262 262 262 262 262 263 263 264 263 261 261 261 261 261 260 260 260 261 261
Wind_Speed
16 16 15 15 15 15 13 14 15 12 13 14 15 14 14 14 13 13 11 11 13 11 9 12 11 8 8 7 5 3 4 3 4 2 1 3 5 6 6 6 5 5 4
13 14 14 13 13 15 15 15 14 15 14 15 13 13 14 14 14 15 15 14 15 13 8 4 9 7 9 7 6 8 6 4 3 5 5 4 4 5 4 6 4 4 5
7 11 11 12 13 15 15 12 12 13 13 12 12 14 14 15 15 17 16 12 10 9 9 10 8 9 9 7 7 7 4 3 2 3 3 2 2 2 3 3 3 4 5
7 10 11 13 14 13 13 12 13 14 13 14 15 17 17 16 16 13 12 11 12 9 10 11 11 12 12 12 9 8 6 5 3 3 2 3 1 3 2 3 3 3 3
2 9 11 10 11 10 11 12 12 12 13 13 12 12 10 10 9 13 14 14 15 14 11 11 11 12 13 14 9 9 9 6 4 4 3 2 3 3 4 2 2 0 3
6 6 6 2 6 10 12 12 11 12 11 8 9 11 10 8 16 19 15 14 11 11 13 11 10 11 13 17 14 16 14 11 7 5 3 4 4 3 3 3 2 1 2
8 7 7 6 5 4 4 1 4 5 5 6 8 10 12 10 23 24 22 11 12 12 11 9 8 6 8 9 12 14 14 14 7 8 6 6 4 6 5 4 3 3 3
9 9 9 8 5 4 3 3 3 3 5 5 6 7 5 6 16 19 18 10 10 12 13 14 12 10 11 10 9 7 7 7 6 4 4 5 4 6 5 4 4 3 0
11 10 8 7 7 5 6 6 3 3 3 4 3 6 7 6 16 18 18 10 10 11 9 11 12 12 16 18 12 9 5 4 5 7 7 9 10 11 10 6 3 3 2
10 11 11 9 6 6 6 6 3 2 4 4 5 5 6 7 16 21 18 8 8 6 6 7 12 11 18 19 9 9 8 6 6 3 2 5 5 8 14 4 5 3 2
11 10 9 7 6 6 5 2 2 1 2 4 4 4 6 7 11 18 20 8 8 8 7 5 5 14 19 20 14 9 8 8 9 5 4 4 2 3 3 5 5 4 3
10 9 8 8 5 3 4 2 2 4 5 4 3 3 2 4 7 14 18 11 11 9 10 7 7 17 18 20 14 13 15 11 6 5 5 3 3 4 4 4 4 4 2
9 10 10 11 8 6 5 2 1 1 2 2 2 4 4 4 5 15 15 13 14 4 7 12 18 19 19 15 17 18 14 6 6 5 5 4 2 3 5 4 2 1 1
10 11 10 9 10 8 4 3 3 2 2 1 3 4 1 3 5 7 9 9 12 7 13 11 13 12 12 11 10 10 6 6 6 5 4 3 4 3 2 2 2 1 0
8 9 10 8 8 8 5 4 4 3 3 3 4 3 5 6 9 12 14 11 10 11 11 9 8 8 7 6 6 6 6 6 4 4 4 5 4 4 2 2 2 2 2
8 7 8 8 7 6 5 5 4 7 10 10 8 8 4 6 14 18 18 20 21 24 9 8 7 7 7 7 7 6 4 6 5 5 4 4 4 4 3 2 1 2 2
7 8 7 7 8 7 6 5 5 2 6 6 6 5 6 5 17 20 20 21 24 17 6 7 7 6 7 7 7 6 4 4 3 3 4 4 4 4 3 3 2 1 1
7 7 6 6 7 9 7 5 3 3 2 3 7 4 4 8 12 16 18 16 8 5 5 7 7 7 6 6 6 6 6 5 4 4 4 4 4 4 3 3 2 1 0
7 6 7 5 5 6 5 5 4 5 5 5 6 11 12 15 15 15 14 6 7 6 6 7 7 7 7 6 6 6 6 5 5 4 3 5 4 3 3 4 3 3 2
7 11 8 6 5 7 6 5 5 6 5 6 6 6 6 9 8 8 7 7 7 7 7 7 7 7 7 6 6 6 6 6 5 4 5 5 4 3 5 3 3 2 1
3 4 6 4 5 4 4 6 6 7 7 7 8 9 17 9 7 8 7 8 6 6 7 7 7 7 6 6 5 5 6 6 4 5 5 3 3 4 3 3 3 2 0
2 2 3 4 4 6 6 6 6 7 7 7 6 10 18 8 7 7 7 7 6 7 6 7 7 6 5 5 5 5 6 5 4 4 4 3 3 4 3 2 2 1 0
3 4 4 4 4 5 6 6 6 6 6 6 6 7 7 7 7 7 7 6 6 6 6 6 6 5 4 5 5 3 5 4 4 3 4 3 3 3 2 1 0 1 1
3 4 3 4 4 5 5 5 5 7 6 6 6 6 7 7 7 7 6 6 6 6 5 5 5 5 5 5 3 3 3 4 3 3 4 3 3 3 1 1 1 2 3
4 4 4 3 4 4 4 4 5 5 5 5 5 5 5 6 6 6 5 5 5 6 5 4 4 5 5 5 5 3 3 3 4 4 3 2 3 2 2 3 3 3 4
3 3 3 3 3 3 3 4 4 4 4 4 5 5 5 5 5 6 5 5 5 4 5 4 3 4 4 3 3 2 2 4 5 8 5 4 3 3 3 4 6 4 6
Wind_Direction
199 200 201 201 200 196 193 197 199 186 183 189 196 197 197 196 195 195 200 191 192 190 191 190 187 176 188 183 173 168 185 187 150 158 149 151 162 182 194 205 203 220 239
198 195 200 196 193 198 199 199 193 194 190 198 195 196 199 199 198 200 195 196 195 192 180 204 188 180 180 178 177 182 185 202 133 159 178 170 178 193 201 212 210 214 233
175 191 193 194 192 203 207 198 193 194 194 193 189 197 201 204 200 204 203 192 177 173 172 172 207 183 178 169 183 178 170 161 146 129 141 109 157 153 183 214 224 243 233
167 183 192 197 202 204 205 197 195 200 197 193 203 202 202 201 201 197 195 175 164 163 173 180 197 188 191 175 178 179 159 158 142 132 131 139 139 130 178 217 224 223 257
238 194 206 208 205 203 203 203 205 203 207 217 188 221 207 196 191 181 174 180 175 176 186 183 200 200 193 176 170 174 163 155 146 166 154 140 169 167 196 169 206 210 254
33 19 2 317 201 198 203 203 199 203 203 187 186 187 179 185 175 175 168 171 167 191 182 189 193 186 189 179 177 173 175 165 166 162 161 176 189 181 150 176 180 179 291
26 18 6 358 360 12 26 109 189 186 148 176 173 173 183 187 177 193 177 171 166 177 181 176 187 177 181 186 173 172 181 180 161 164 171 181 166 175 145 165 190 182 207
22 5 3 343 339 341 316 236 206 167 190 187 187 197 176 166 179 169 171 165 174 181 171 176 182 185 177 173 161 164 175 182 181 170 178 154 161 157 157 162 164 154 115
2 349 341 311 319 325 267 246 209 195 208 188 190 179 183 182 177 176 167 177 176 179 179 185 180 176 175 169 158 168 163 188 199 188 180 164 175 169 154 131 165 155 211
341 324 319 320 314 299 286 263 228 166 233 218 192 165 186 168 177 175 174 165 163 173 159 158 158 160 167 173 160 165 164 198 161 133 120 124 167 178 168 183 147 165 157
320 314 312 311 308 302 292 258 310 262 157 205 196 180 180 174 182 178 177 184 173 163 152 164 152 158 165 172 167 174 177 144 172 148 144 122 139 149 149 173 184 164 164
321 318 327 329 320 296 271 282 221 205 228 215 185 195 191 148 143 182 184 185 169 164 163 157 160 161 164 169 166 161 148 128 132 138 132 155 168 186 181 179 191 200 196
334 342 340 334 335 335 320 305 302 265 203 214 218 212 188 173 175 170 180 184 171 154 160 159 159 165 165 164 166 157 141 143 143 142 159 184 175 133 113 119 93 60 295
350 350 344 343 338 340 326 301 269 206 238 210 208 225 195 196 185 177 160 166 159 144 136 140 150 148 150 157 152 153 149 156 152 157 171 136 120 122 124 135 129 101 323
351 351 346 338 331 330 324 308 296 272 227 211 223 193 196 209 209 179 166 169 163 148 129 128 134 140 142 154 134 136 137 140 147 142 140 145 142 135 127 137 125 135 229
355 352 345 334 329 324 321 317 290 293 283 263 253 218 209 232 175 183 171 167 147 147 139 148 152 154 155 155 146 139 129 140 138 146 138 149 148 147 147 117 103 187 214
358 344 340 347 334 331 331 323 319 352 36 360 323 239 202 181 180 175 166 156 151 148 144 143 150 156 148 147 141 136 120 111 112 136 130 136 132 113 121 110 113 125 223
353 334 339 342 344 340 337 334 337 353 10 5 8 23 119 148 172 160 146 134 136 105 128 135 131 124 121 116 116 118 116 115 103 105 103 95 85 98 110 109 105 122 319
350 338 341 333 354 347 341 360 14 29 32 34 30 41 47 74 95 103 104 105 104 95 98 97 100 101 100 98 98 98 106 111 113 118 110 99 98 118 116 101 97 80 81
357 350 346 345 352 11 2 2 32 36 40 57 47 31 35 51 39 36 44 68 84 90 94 96 89 91 95 101 104 106 109 106 108 112 102 102 111 119 110 115 109 105 98
343 341 335 340 4 10 2 15 27 45 36 38 53 67 75 73 61 51 40 41 51 68 77 84 80 79 78 89 98 106 104 109 113 110 113 129 145 116 110 110 105 112 97
14 5 2 13 353 27 32 34 34 36 52 49 31 39 61 62 66 68 65 56 49 51 50 74 80 81 90 103 107 112 117 122 123 120 124 128 115 108 107 96 96 110 122
27 35 26 18 20 23 43 45 44 46 41 37 48 52 46 52 56 60 62 57 57 59 56 69 86 87 83 85 78 90 113 121 127 141 147 144 131 114 110 116 151 324 319
18 28 35 33 34 41 50 49 51 53 55 54 52 53 57 57 57 56 54 55 56 57 58 63 72 96 103 93 98 102 108 119 143 170 159 142 128 136 160 230 240 245 262
36 39 39 43 58 61 56 52 58 57 59 64 68 75 75 75 74 69 66 67 68 70 69 80 79 80 81 95 96 104 134 150 175 172 159 159 191 188 222 250 260 271 261
47 52 47 37 54 66 72 79 69 63 63 64 67 59 64 78 88 94 90 87 89 87 85 71 82 85 81 77 70 82 190 210 200 193 182 186 217 244 230 249 261 253 264